Location: Meylan - GAD - Ancien Couvent des Capucins
(45.2229°N, 5.7790°E)
Time: 17:09:02
(UTC+02:00)

ISS - Visible Passes

Search period start: 23 May 2018 00:00
Search period end: 02 June 2018 00:00
Orbit: 402 x 407 km, 51.6° (Epoch: 24 May)

Date Brightness Start Highest point End Pass type
(mag) Time Alt. Az. Time Alt. Az. Time Alt. Az.
23 May -1.6 00:36:58 10° WNW 00:39:49 27° N 00:42:40 10° NE visible
23 May -1.9 02:13:56 10° NW 02:16:54 31° NNE 02:19:53 10° E visible
23 May -4.0 03:50:21 10° WNW 03:53:36 71° SSW 03:56:51 10° SE visible
23 May -3.9 22:07:29 10° SW 22:10:45 75° SSE 22:14:00 10° ENE visible
23 May -1.9 23:44:30 10° WNW 23:47:28 31° NNW 23:50:26 10° NE visible
24 May -1.6 01:21:42 10° NW 01:24:33 27° N 01:27:24 10° ENE visible
24 May -2.7 02:58:09 10° WNW 03:00:18 37° NW 03:00:18 37° NW visible
24 May -2.4 22:52:02 10° W 22:55:08 39° NNW 22:58:15 10° NE visible
25 May -1.5 00:29:23 10° WNW 00:32:10 25° N 00:34:58 10° ENE visible
25 May -2.3 02:06:00 10° NW 02:08:18 35° NNW 02:08:18 35° NNW visible
25 May -3.1 21:59:37 10° WSW 22:02:50 57° NNW 22:06:04 10° NE visible
25 May -1.5 23:36:57 10° WNW 23:39:46 26° N 23:42:35 10° NE visible
26 May -2.2 01:13:49 10° NW 01:16:51 34° NNE 01:17:13 33° NNE visible
26 May -1.7 22:44:28 10° WNW 22:47:23 29° N 22:50:18 10° NE visible
27 May -1.8 00:21:35 10° NW 00:24:28 28° N 00:26:23 16° ENE visible
27 May -1.5 01:58:01 10° WNW 01:59:01 18° WNW 01:59:01 18° WNW visible
27 May -2.1 21:51:56 10° W 21:55:00 36° NNW 21:58:03 10° NE visible
27 May -1.6 23:29:15 10° NW 23:32:03 26° N 23:34:52 10° ENE visible
28 May -2.6 01:05:48 10° NW 01:08:17 42° NNW 01:08:17 42° NNW visible
28 May -1.6 22:36:49 10° WNW 22:39:37 25° N 22:42:25 10° ENE visible
29 May -2.5 00:13:35 10° NW 00:16:40 37° NNE 00:17:36 30° ENE visible
29 May -1.0 01:50:04 10° WNW 01:50:14 11° WNW 01:50:14 11° WNW visible
29 May -2.0 23:21:19 10° NW 23:24:16 30° NNE 23:26:58 11° ENE visible
30 May -2.3 00:57:44 10° WNW 00:59:36 31° WNW 00:59:36 31° WNW visible
30 May -1.8 22:28:59 10° NW 22:31:49 26° N 22:34:39 10° ENE visible
31 May -3.5 00:05:28 10° WNW 00:08:44 61° NNE 00:08:59 59° NE visible
31 May -2.7 23:13:14 10° NW 23:16:22 41° NNE 23:18:24 19° E visible
01 Jun -1.7 00:49:46 10° WNW 00:51:01 20° W 00:51:01 20° W visible
01 Jun -2.2 22:20:57 10° NW 22:23:57 32° NNE 22:26:56 10° E visible
